Time,TemperatureF,DewpointF,PressureIn,WindDirection,WindDirectionDegrees,WindSpeedMPH,WindSpeedGustMPH,Humidity,HourlyPrecipIn,Conditions,Clouds,dailyrainin,SoftwareType,DateUTC
2013-04-08 00:43:00,63.5,57.0,30.14,ENE,78,0.0,0.0,80,0.00,,,0.00,weatherlink.com 1.10,2013-04-08 04:43:00,
2013-04-08 00:58:00,63.8,58.0,30.14,ESE,114,0.0,4.0,80,0.00,,,0.00,weatherlink.com 1.10,2013-04-08 04:58:00,
2013-04-08 01:14:00,64.1,58.0,30.14,SE,136,0.0,5.0,80,0.00,,,0.00,weatherlink.com 1.10,2013-04-08 05:14:00,
2013-04-08 01:29:00,64.2,58.0,30.13,East,79,0.0,1.0,80,0.00,,,0.00,weatherlink.com 1.10,2013-04-08 05:29:00,
2013-04-08 01:59:00,64.3,58.0,30.13,East,87,0.0,0.0,80,0.00,,,0.00,weatherlink.com 1.10,2013-04-08 05:59:00,
2013-04-08 02:29:00,64.2,58.0,30.12,NE,50,0.0,0.0,80,0.00,,,0.00,weatherlink.com 1.10,2013-04-08 06:29:00,
2013-04-08 02:59:00,64.5,58.0,30.11,ENE,67,0.0,0.0,80,0.00,,,0.00,weatherlink.com 1.10,2013-04-08 06:59:00,
2013-04-08 03:59:00,65.4,59.0,30.10,ENE,58,0.0,0.0,80,0.00,,,0.00,weatherlink.com 1.10,2013-04-08 07:59:00,
2013-04-08 04:14:00,65.4,59.0,30.10,ENE,58,0.0,0.0,80,0.00,,,0.00,weatherlink.com 1.10,2013-04-08 08:14:00,
2013-04-08 04:29:00,65.4,59.0,30.09,ENE,61,0.0,0.0,80,0.00,,,0.00,weatherlink.com 1.10,2013-04-08 08:29:00,
2013-04-08 04:44:00,65.0,59.0,30.10,ENE,63,0.0,0.0,80,0.00,,,0.00,weatherlink.com 1.10,2013-04-08 08:44:00,
2013-04-08 04:59:00,64.7,58.0,30.09,ENE,63,0.0,0.0,80,0.00,,,0.00,weatherlink.com 1.10,2013-04-08 08:59:00,
2013-04-08 05:14:00,64.7,58.0,30.09,ENE,63,0.0,0.0,80,0.00,,,0.00,weatherlink.com 1.10,2013-04-08 09:14:00,
2013-04-08 05:29:00,64.4,58.0,30.10,ENE,63,0.0,1.0,80,0.00,,,0.00,weatherlink.com 1.10,2013-04-08 09:29:00,
2013-04-08 05:44:00,63.9,58.0,30.10,ENE,63,0.0,0.0,80,0.00,,,0.00,weatherlink.com 1.10,2013-04-08 09:44:00,
2013-04-08 06:14:00,63.3,57.0,30.11,ENE,63,0.0,1.0,79,0.00,,,0.00,weatherlink.com 1.10,2013-04-08 10:14:00,
2013-04-08 06:44:00,63.5,57.0,30.12,ENE,63,0.0,1.0,79,0.00,,,0.00,weatherlink.com 1.10,2013-04-08 10:44:00,
2013-04-08 06:59:00,63.6,57.0,30.13,ENE,63,0.0,1.0,79,0.00,,,0.00,weatherlink.com 1.10,2013-04-08 10:59:00,
2013-04-08 07:14:00,63.4,57.0,30.13,ENE,63,0.0,0.0,79,0.00,,,0.00,weatherlink.com 1.10,2013-04-08 11:14:00,
2013-04-08 07:29:00,63.4,57.0,30.14,ENE,63,0.0,0.0,79,0.00,,,0.00,weatherlink.com 1.10,2013-04-08 11:29:00,
2013-04-08 07:44:00,63.4,57.0,30.14,ENE,63,0.0,0.0,79,0.00,,,0.00,weatherlink.com 1.10,2013-04-08 11:44:00,
2013-04-08 07:59:00,63.7,57.0,30.15,ENE,63,0.0,0.0,78,0.00,,,0.00,weatherlink.com 1.10,2013-04-08 11:59:00,
2013-04-08 08:14:00,64.8,59.0,30.15,ENE,63,0.0,0.0,80,0.00,,,0.00,weatherlink.com 1.10,2013-04-08 12:14:00,
2013-04-08 08:29:00,66.0,60.0,30.15,ENE,63,0.0,0.0,80,0.00,,,0.00,weatherlink.com 1.10,2013-04-08 12:29:00,
2013-04-08 08:45:00,66.9,61.0,30.16,ENE,63,0.0,0.0,80,0.00,,,0.00,weatherlink.com 1.10,2013-04-08 12:45:00,
2013-04-08 09:00:00,68.2,61.0,30.16,ENE,63,0.0,0.0,79,0.00,,,0.00,weatherlink.com 1.10,2013-04-08 13:00:00,
2013-04-08 09:15:00,70.3,62.0,30.16,ENE,63,0.0,0.0,76,0.00,,,0.00,weatherlink.com 1.10,2013-04-08 13:15:00,
2013-04-08 09:30:00,72.3,63.0,30.17,ENE,63,0.0,0.0,72,0.00,,,0.00,weatherlink.com 1.10,2013-04-08 13:30:00,
2013-04-08 09:45:00,71.1,62.0,30.17,ENE,62,0.0,0.0,74,0.00,,,0.00,weatherlink.com 1.10,2013-04-08 13:45:00,
2013-04-08 10:00:00,71.5,63.0,30.17,ENE,62,0.0,0.0,74,0.00,,,0.00,weatherlink.com 1.10,2013-04-08 14:00:00,
2013-04-08 10:15:00,71.1,63.0,30.16,ENE,62,0.0,0.0,75,0.00,,,0.00,weatherlink.com 1.10,2013-04-08 14:15:00,
2013-04-08 10:45:00,71.4,62.0,30.16,SW,232,0.0,1.0,73,0.00,,,0.00,weatherlink.com 1.10,2013-04-08 14:45:00,
2013-04-08 11:00:00,72.6,61.0,30.17,SSE,165,0.0,0.0,67,0.00,,,0.00,weatherlink.com 1.10,2013-04-08 15:00:00,
2013-04-08 11:15:00,74.4,58.0,30.17,SE,125,4.0,7.0,56,0.00,,,0.00,weatherlink.com 1.10,2013-04-08 15:15:00,
2013-04-08 11:30:00,75.3,56.0,30.17,ESE,105,4.0,8.0,52,0.00,,,0.00,weatherlink.com 1.10,2013-04-08 15:30:00,
2013-04-08 11:45:00,75.9,56.0,30.16,SE,134,9.0,11.0,51,0.00,,,0.00,weatherlink.com 1.10,2013-04-08 15:45:00,
2013-04-08 12:00:00,76.1,57.0,30.16,SE,136,7.0,12.0,52,0.00,,,0.00,weatherlink.com 1.10,2013-04-08 16:00:00,
2013-04-08 12:15:00,76.2,57.0,30.16,ESE,116,10.0,13.0,52,0.00,,,0.00,weatherlink.com 1.10,2013-04-08 16:15:00,
2013-04-08 12:30:00,76.8,58.0,30.16,ESE,123,13.0,13.0,53,0.00,,,0.00,weatherlink.com 1.10,2013-04-08 16:30:00,
2013-04-08 12:45:00,76.9,54.0,30.16,SE,145,8.0,10.0,46,0.00,,,0.00,weatherlink.com 1.10,2013-04-08 16:45:00,
2013-04-08 13:00:00,77.3,56.0,30.15,SE,135,6.0,11.0,48,0.00,,,0.00,weatherlink.com 1.10,2013-04-08 17:00:00,
2013-04-08 13:15:00,77.9,54.0,30.14,SSE,156,0.0,9.0,44,0.00,,,0.00,weatherlink.com 1.10,2013-04-08 17:15:00,
2013-04-08 13:30:00,78.9,56.0,30.14,SSE,159,3.0,10.0,45,0.00,,,0.00,weatherlink.com 1.10,2013-04-08 17:30:00,
2013-04-08 14:00:00,78.2,58.0,30.12,SW,217,4.0,12.0,50,0.00,,,0.00,weatherlink.com 1.10,2013-04-08 18:00:00,
2013-04-08 14:15:00,78.0,58.0,30.11,SSW,203,6.0,9.0,50,0.00,,,0.00,weatherlink.com 1.10,2013-04-08 18:15:00,
2013-04-08 14:30:00,78.3,57.0,30.11,SSE,162,0.0,7.0,48,0.00,,,0.00,weatherlink.com 1.10,2013-04-08 18:30:00,
2013-04-08 14:45:00,78.3,56.0,30.11,SSE,163,0.0,10.0,47,0.00,,,0.00,weatherlink.com 1.10,2013-04-08 18:45:00,
2013-04-08 15:00:00,78.6,57.0,30.09,SSW,205,0.0,10.0,47,0.00,,,0.00,weatherlink.com 1.10,2013-04-08 19:00:00,
2013-04-08 15:15:00,79.2,56.0,30.09,South,185,5.0,10.0,45,0.00,,,0.00,weatherlink.com 1.10,2013-04-08 19:15:00,
2013-04-08 15:30:00,79.2,59.0,30.09,SSW,196,4.0,7.0,51,0.00,,,0.00,weatherlink.com 1.10,2013-04-08 19:30:00,
2013-04-08 15:45:00,79.2,58.0,30.09,South,187,0.0,8.0,49,0.00,,,0.00,weatherlink.com 1.10,2013-04-08 19:45:00,
2013-04-08 16:00:00,80.0,57.0,30.09,SW,236,1.0,5.0,45,0.00,,,0.00,weatherlink.com 1.10,2013-04-08 20:00:00,
2013-04-08 16:15:00,79.3,60.0,30.08,South,183,0.0,6.0,52,0.00,,,0.00,weatherlink.com 1.10,2013-04-08 20:15:00,
2013-04-08 16:30:00,79.6,59.0,30.08,South,185,0.0,3.0,49,0.00,,,0.00,weatherlink.com 1.10,2013-04-08 20:30:00,
2013-04-08 17:00:00,80.1,59.0,30.08,South,180,3.0,8.0,48,0.00,,,0.00,weatherlink.com 1.10,2013-04-08 21:00:00,
2013-04-08 17:15:00,79.4,59.0,30.07,SE,133,6.0,7.0,49,0.00,,,0.00,weatherlink.com 1.10,2013-04-08 21:15:00,
2013-04-08 17:30:00,80.3,60.0,30.07,ESE,119,10.0,14.0,51,0.00,,,0.00,weatherlink.com 1.10,2013-04-08 21:30:00,
2013-04-08 17:45:00,79.8,61.0,30.07,SE,134,8.0,13.0,52,0.00,,,0.00,weatherlink.com 1.10,2013-04-08 21:45:00,
2013-04-08 18:00:00,79.9,63.0,30.08,SE,136,6.0,7.0,56,0.00,,,0.00,weatherlink.com 1.10,2013-04-08 22:00:00,
2013-04-08 18:15:00,79.8,61.0,30.08,SE,130,7.0,12.0,52,0.00,,,0.00,weatherlink.com 1.10,2013-04-08 22:15:00,
2013-04-08 18:30:00,79.6,62.0,30.08,ESE,112,10.0,16.0,56,0.00,,,0.00,weatherlink.com 1.10,2013-04-08 22:30:00,
2013-04-08 18:45:00,79.5,62.0,30.09,ESE,111,9.0,16.0,56,0.00,,,0.00,weatherlink.com 1.10,2013-04-08 22:45:00,
2013-04-08 19:00:00,79.0,63.0,30.09,ESE,117,9.0,13.0,58,0.00,,,0.00,weatherlink.com 1.10,2013-04-08 23:00:00,
2013-04-08 19:15:00,78.3,63.0,30.10,ENE,71,7.0,14.0,60,0.00,,,0.00,weatherlink.com 1.10,2013-04-08 23:15:00,
2013-04-08 19:32:00,77.1,63.0,30.10,East,81,1.0,13.0,62,0.00,,,0.00,weatherlink.com 1.10,2013-04-08 23:32:00,
2013-04-08 19:46:00,76.3,63.0,30.10,East,88,1.0,16.0,63,0.00,,,0.00,weatherlink.com 1.10,2013-04-08 23:46:00,
2013-04-08 20:01:00,75.5,63.0,30.11,ENE,65,5.0,11.0,65,0.00,,,0.00,weatherlink.com 1.10,2013-04-09 00:01:00,
2013-04-08 20:16:00,74.8,63.0,30.11,East,99,5.0,12.0,67,0.00,,,0.00,weatherlink.com 1.10,2013-04-09 00:16:00,
2013-04-08 20:31:00,74.1,63.0,30.11,East,83,0.0,8.0,69,0.00,,,0.00,weatherlink.com 1.10,2013-04-09 00:31:00,
2013-04-08 20:46:00,73.5,63.0,30.11,SE,125,4.0,9.0,69,0.00,,,0.00,weatherlink.com 1.10,2013-04-09 00:46:00,
2013-04-08 21:01:00,72.9,62.0,30.12,ESE,123,2.0,11.0,69,0.00,,,0.00,weatherlink.com 1.10,2013-04-09 01:01:00,
2013-04-08 21:16:00,72.5,63.0,30.12,ESE,111,5.0,14.0,71,0.00,,,0.00,weatherlink.com 1.10,2013-04-09 01:16:00,
2013-04-08 21:31:00,72.0,62.0,30.13,East,88,3.0,12.0,71,0.00,,,0.00,weatherlink.com 1.10,2013-04-09 01:31:00,
2013-04-08 21:46:00,71.6,62.0,30.14,East,85,6.0,11.0,72,0.00,,,0.00,weatherlink.com 1.10,2013-04-09 01:46:00,
2013-04-08 22:01:00,71.2,63.0,30.14,ESE,107,7.0,9.0,74,0.00,,,0.00,weatherlink.com 1.10,2013-04-09 02:01:00,
2013-04-08 22:16:00,70.7,62.0,30.15,ESE,119,2.0,8.0,75,0.00,,,0.00,weatherlink.com 1.10,2013-04-09 02:16:00,
2013-04-08 22:46:00,69.8,62.0,30.15,ENE,73,5.0,7.0,77,0.00,,,0.00,weatherlink.com 1.10,2013-04-09 02:46:00,
2013-04-08 23:01:00,69.5,62.0,30.15,ESE,107,0.0,5.0,78,0.00,,,0.00,weatherlink.com 1.10,2013-04-09 03:01:00,
2013-04-08 23:16:00,69.1,62.0,30.15,ESE,109,1.0,7.0,79,0.00,,,0.00,weatherlink.com 1.10,2013-04-09 03:16:00,
2013-04-08 23:31:00,68.8,62.0,30.15,East,96,7.0,7.0,79,0.00,,,0.00,weatherlink.com 1.10,2013-04-09 03:31:00,
2013-04-08 23:46:00,68.5,62.0,30.15,East,94,0.0,7.0,79,0.00,,,0.00,weatherlink.com 1.10,2013-04-09 03:46:00,